GFSFLT1_prec_cthk_072.txt.gz
RH
32 32 31 34 32 34 39 46 66 85 88 96 99 99 94 91 92 85 78 80 79 77 76 74 73 79 80 82 83 81 80 77
40 34 29 26 29 31 34 43 66 88 94 96 96 97 94 89 91 89 84 83 86 79 82 78 81 84 87 86 85 85 84 82
47 40 33 29 27 29 32 39 56 77 87 95 96 97 95 97 94 87 83 84 78 80 86 85 87 90 90 85 86 86 86 85
47 48 34 31 24 27 30 34 47 59 71 82 88 94 94 96 96 94 89 87 80 81 89 91 90 90 87 87 86 85 84 83
45 49 37 33 26 23 30 33 38 45 51 62 69 84 93 96 98 97 98 93 89 85 92 93 92 90 88 88 88 87 85 88
44 46 40 33 28 21 25 29 35 37 42 48 59 66 85 92 92 93 95 94 92 89 92 94 93 90 89 92 90 87 84 87
39 44 43 33 30 26 26 33 37 37 40 42 49 53 63 72 85 90 97 96 93 93 94 93 94 91 91 93 90 87 86 85
35 40 44 33 29 29 30 35 37 38 40 41 42 47 54 57 64 77 86 92 92 92 93 93 91 89 91 89 93 94 89 87
34 38 42 40 31 30 28 33 35 38 41 42 43 47 49 52 54 60 63 68 71 73 77 81 81 82 84 90 93 83 88 76
35 38 42 43 39 34 30 34 35 36 37 38 40 43 47 51 51 54 57 59 60 62 65 68 73 77 80 86 82 79 79 76
35 37 41 44 44 38 34 36 36 37 36 38 42 44 43 46 49 51 54 56 58 58 57 60 67 73 76 77 75 75 75 74
38 39 42 44 45 41 37 38 39 38 37 43 45 44 48 50 52 56 60 63 67 68 69 70 70 70 69 70 70 71 73 68
43 43 41 43 45 44 39 39 42 44 45 43 47 51 48 48 57 58 58 60 67 71 75 75 75 74 75 75 71 70 74 76
44 45 45 46 47 46 43 42 44 49 50 50 48 49 50 47 48 53 59 62 64 64 70 68 69 74 77 80 80 78 76 77
44 45 46 48 50 48 48 50 46 45 48 48 47 46 46 47 48 47 48 53 52 53 55 64 66 63 68 80 81 82 79 88
45 47 48 50 52 55 51 48 45 46 47 42 37 40 41 43 46 47 49 51 51 53 54 59 65 66 68 77 84 86 84 91
49 46 52 51 52 53 55 53 49 49 45 43 43 41 41 42 44 48 53 53 56 58 55 60 67 70 75 77 80 80 85 92
54 51 48 53 50 49 50 49 53 51 48 46 45 46 45 44 43 42 40 43 48 51 55 63 65 70 73 84 86 88 91 91
50 54 50 47 45 46 47 50 50 51 54 53 49 48 51 51 51 51 52 41 42 47 53 61 66 68 73 80 87 90 93 92

GFSFLT1_prec_cthk_075.txt.gz
RH
38 33 30 32 34 32 30 35 45 64 83 86 91 97 96 98 97 93 88 86 79 74 74 76 79 80 76 73 77 76 77 77
42 40 30 26 28 28 29 35 45 62 78 87 92 95 96 94 92 87 86 85 79 75 77 76 82 79 75 77 80 79 80 81
43 44 40 28 27 28 27 33 43 60 74 86 94 94 96 95 88 84 80 76 73 76 78 79 76 80 80 82 84 83 83 83
43 42 43 34 27 26 28 31 39 51 62 78 91 94 95 92 89 84 78 80 79 79 78 76 76 80 84 85 84 84 86 85
41 40 45 38 29 26 26 29 33 43 47 54 64 75 81 89 87 86 81 82 82 83 78 78 78 80 84 87 85 81 84 89
39 39 44 42 31 25 25 29 33 40 43 45 51 60 68 85 91 94 91 84 83 86 84 83 82 85 86 86 86 84 83 89
37 38 42 45 33 25 25 29 33 38 41 45 45 50 56 62 77 91 89 87 87 90 86 84 88 90 89 90 89 92 84 92
36 38 39 44 33 25 25 28 31 34 38 42 43 46 49 53 61 68 80 86 90 89 88 86 87 92 93 91 90 88 86 89
31 34 39 43 39 29 26 27 31 32 36 39 42 43 45 47 48 56 63 67 75 78 85 88 87 92 94 92 92 92 87 90
37 33 39 43 44 34 31 28 30 33 33 35 36 39 42 43 45 47 51 57 59 63 64 68 72 75 84 87 85 83 84 86
34 34 39 42 47 45 35 33 29 32 33 34 35 37 41 47 48 48 51 52 52 56 56 59 61 66 76 80 80 79 79 81
36 37 40 41 45 49 43 38 33 32 33 35 35 37 39 41 47 54 56 59 60 63 64 66 66 66 68 69 72 77 79 81
41 42 43 46 48 49 52 44 37 35 36 38 39 40 42 42 45 47 54 59 61 65 68 66 67 66 68 71 71 73 75 77
56 44 47 49 46 48 53 51 43 40 40 43 44 44 46 48 49 49 49 56 57 62 65 64 61 65 68 68 69 70 72 76
50 50 50 53 51 50 51 55 52 50 48 48 48 50 49 50 53 54 51 51 52 57 61 61 61 62 65 68 72 71 73 81
54 51 51 52 52 51 53 56 58 58 58 54 48 52 54 52 50 53 54 52 48 48 51 53 57 59 59 64 69 73 76 80
54 57 55 55 55 57 58 59 57 58 58 53 53 54 53 49 47 48 50 53 54 53 52 51 52 53 54 59 66 72 75 76
51 52 57 57 57 60 59 59 61 61 56 57 56 55 53 52 52 51 50 50 51 50 52 51 49 53 53 54 67 74 74 80
42 47 51 54 57 56 58 60 63 60 56 57 56 54 52 53 53 53 53 53 51 50 49 51 47 49 54 62 74 75 73 76

GFSFLT1_prec_cthk_078.txt.gz
RH
35 35 35 30 30 26 26 25 32 42 61 74 79 90 89 89 90 93 92 90 91 88 90 96 92 86 82 74 70 67 67 68
38 37 35 34 33 27 26 24 30 46 57 72 81 86 88 91 92 87 87 87 86 92 92 85 87 90 81 77 73 73 72 72
38 37 37 35 34 27 26 26 31 43 56 69 83 88 89 91 90 89 86 87 86 84 81 77 79 82 80 77 74 82 81 78
42 36 37 36 35 29 26 26 30 40 51 63 77 88 92 91 90 88 83 79 80 84 83 77 76 78 78 77 79 83 82 80
42 37 36 37 38 31 25 23 29 37 44 51 58 65 74 82 85 87 83 81 79 77 78 75 72 77 79 77 77 87 86 82
39 37 36 39 40 32 24 23 28 35 41 46 49 53 57 62 72 77 78 77 79 77 78 78 76 75 75 76 86 89 88 87
35 38 37 39 42 35 24 22 27 33 39 41 44 46 48 54 61 71 79 81 78 80 81 83 77 76 75 78 88 87 85 88
36 39 38 38 41 36 24 24 26 29 35 39 42 44 44 47 52 61 66 69 67 74 82 86 82 81 81 82 87 88 88 87
40 38 37 38 39 38 30 24 24 28 31 35 39 43 45 46 47 52 57 63 65 70 75 80 83 82 84 84 86 88 88 90
41 39 38 36 38 40 36 29 27 28 29 33 35 41 44 45 46 49 51 56 60 63 64 68 69 73 79 84 89 88 86 87
51 46 39 38 39 43 43 35 31 30 28 29 33 35 39 45 50 53 53 53 58 59 57 58 58 56 59 65 70 77 80 82
51 48 46 41 43 44 45 44 38 35 31 31 32 34 36 39 43 48 50 58 59 60 62 63 66 66 64 66 64 66 75 79
55 50 49 48 47 46 45 49 47 42 38 34 35 37 36 36 41 42 45 47 52 59 62 63 65 67 68 67 68 69 70 74
57 57 57 53 53 53 52 52 51 49 46 41 38 38 40 42 44 46 47 49 49 49 51 56 60 62 61 60 63 66 70 73
58 58 61 65 55 54 55 55 55 55 52 46 43 42 43 45 48 50 51 53 54 51 49 49 54 58 58 58 59 61 66 67
57 58 57 60 60 62 58 57 58 58 58 56 50 52 55 53 52 53 54 54 53 57 56 50 49 51 53 55 57 58 61 68
61 61 59 60 63 60 64 61 58 58 58 58 60 58 59 57 55 56 56 51 48 53 52 54 55 51 49 52 55 59 63 66
52 55 57 56 59 64 60 59 65 63 58 57 61 62 61 60 58 60 58 54 54 52 55 57 55 53 53 56 54 60 64 63
43 44 47 50 52 56 60 58 58 64 70 67 63 64 62 61 61 59 58 58 58 59 59 58 58 57 56 55 61 62 62 65

GFSFLT1_prec_cthk_081.txt.gz
RH
35 30 29 31 31 28 25 24 29 37 40 58 67 76 83 87 93 97 96 95 97 92 91 88 82 74 70 75 73 64 59 60
40 37 32 30 34 33 26 21 27 34 40 60 70 79 87 86 88 93 96 96 96 92 88 88 83 81 75 76 72 66 68 66
42 38 37 30 32 32 28 22 23 30 42 59 72 81 86 84 87 88 90 90 90 92 90 89 90 93 91 82 73 72 73 74
43 40 39 31 30 32 31 23 22 28 39 52 67 79 87 89 89 88 87 84 85 87 88 88 95 96 92 91 83 76 73 75
41 39 37 35 31 33 32 22 22 28 36 44 56 62 69 75 82 82 82 83 81 83 87 90 93 93 87 86 83 76 73 77
38 36 33 36 32 33 33 22 22 29 34 40 46 49 55 59 64 66 70 78 82 85 81 80 85 85 83 82 79 77 79 81
34 34 34 35 33 34 35 22 24 29 34 37 39 43 47 51 55 60 67 79 83 78 80 77 75 76 75 74 77 81 81 80
37 39 34 33 32 35 34 23 23 28 31 35 38 41 44 46 49 54 61 66 72 77 81 82 79 78 80 79 80 82 78 81
39 40 37 34 31 32 36 28 22 23 30 32 37 39 41 43 48 51 53 57 59 65 72 80 82 85 84 84 86 81 81 88
43 43 41 35 31 32 34 37 28 24 25 32 35 37 39 42 45 48 50 53 53 56 62 68 73 73 75 82 84 83 85 89
48 46 48 38 31 32 36 38 35 28 27 28 33 34 37 41 44 48 54 57 59 56 54 54 59 61 64 67 69 75 78 83
54 51 50 49 37 36 40 42 43 38 33 32 31 35 36 37 40 44 48 51 58 66 67 64 60 58 63 65 64 63 61 65
55 52 53 55 49 43 45 46 44 46 45 40 36 35 36 38 38 40 44 47 49 51 57 66 68 66 66 67 67 64 65 66
57 55 56 66 59 50 48 47 49 51 48 49 44 38 39 38 40 43 44 46 49 52 52 53 55 59 65 65 66 66 65 65
61 58 56 60 66 73 67 54 55 56 55 53 51 45 43 44 44 45 47 48 51 52 54 55 53 52 51 58 62 62 61 60
63 62 62 63 63 68 79 75 67 61 64 59 55 55 49 50 52 52 53 52 53 54 56 53 54 54 50 49 52 55 58 58
67 65 63 64 69 66 65 68 79 80 68 63 62 60 60 59 58 59 62 59 56 59 58 54 53 54 54 55 56 57 56 56
62 63 58 58 64 66 63 65 67 70 74 74 72 68 64 61 65 68 68 66 62 62 63 62 59 58 57 58 60 61 63 61
49 49 45 44 47 52 56 60 60 65 67 68 75 77 75 69 67 65 64 67 67 66 67 66 66 63 64 66 67 68 68 66

GFSFLT1_prec_cthk_084.txt.gz
RH
35 41 35 27 31 32 31 28 29 28 30 36 54 66 81 86 95 98 97 96 94 95 91 84 73 62 59 61 63 62 60 63
38 41 42 35 31 33 32 30 28 29 28 38 58 71 85 86 93 96 97 95 97 95 95 85 76 74 68 64 68 73 71 68
38 40 41 38 34 33 32 30 25 27 34 39 59 70 80 84 85 91 98 96 96 98 98 90 84 84 81 72 72 75 75 73
37 39 38 40 38 33 33 31 23 26 31 39 61 74 82 83 86 89 93 95 97 97 96 92 87 85 84 80 74 75 74 75
35 38 36 38 38 36 34 33 21 22 30 39 49 61 70 76 80 88 89 92 92 92 89 89 90 89 86 84 82 79 76 76
33 37 36 39 38 40 36 33 21 20 30 37 43 48 55 61 67 71 74 82 88 91 93 93 92 91 90 94 92 87 86 79
31 37 38 38 39 41 37 34 22 21 30 34 39 43 45 51 56 60 62 69 81 88 93 94 96 92 94 97 94 91 89 83
35 38 39 38 36 38 37 34 22 20 28 33 37 42 45 47 50 52 57 65 77 83 89 89 90 90 95 94 95 91 88 86
34 38 40 38 37 38 38 34 25 19 23 30 35 40 43 45 46 49 51 57 68 77 77 82 86 88 89 91 92 90 87 83
37 41 43 43 40 35 37 37 33 22 20 27 32 35 39 41 46 48 50 53 57 64 72 74 74 76 80 85 82 83 82 84
44 42 44 46 43 37 39 41 39 35 24 23 29 34 37 41 45 49 52 55 57 58 58 62 64 65 66 66 67 75 85 87
48 46 48 51 50 43 42 44 44 43 36 29 27 32 36 38 41 45 47 52 56 61 64 61 57 59 61 62 66 67 67 70
51 56 57 60 61 52 46 47 48 50 50 45 36 31 34 37 39 40 44 48 50 53 56 59 61 64 65 66 67 69 69 65
60 61 62 65 67 66 62 59 61 58 54 55 54 47 36 36 39 42 43 47 52 55 57 60 61 60 57 60 64 68 70 67
67 68 67 69 71 74 75 70 68 66 60 58 59 58 56 46 42 43 45 48 49 52 54 56 59 64 63 63 62 61 64 66
70 68 70 71 70 69 70 73 73 74 72 67 64 67 64 64 56 51 49 48 49 51 55 58 60 61 59 61 64 64 63 65
79 78 70 67 70 69 66 65 72 77 82 83 80 78 74 71 68 60 59 58 58 58 57 56 58 60 60 58 62 65 66 67
75 73 71 68 65 62 62 62 65 67 68 71 78 82 80 76 76 75 72 68 68 67 67 67 61 61 61 62 63 65 67 66
77 70 63 60 59 57 57 58 60 64 66 68 70 71 78 82 82 78 74 76 74 73 73 71 71 67 71 72 72 74 71 68

GFSFLT1_prec_cthk_087.txt.gz
RH
29 33 35 39 40 32 31 31 31 25 23 28 32 48 66 79 94 97 96 96 97 93 86 84 70 70 64 64 73 72 67 63
32 35 37 41 44 36 31 31 31 24 21 26 35 55 67 83 87 96 97 96 96 94 96 91 77 70 66 64 66 69 66 65
33 36 38 40 43 45 33 31 30 25 21 24 36 57 73 82 83 91 99 97 98 97 97 95 81 72 70 63 62 65 70 70
33 36 39 40 42 45 36 32 31 27 21 25 36 59 73 80 82 86 91 97 97 99 98 97 84 74 75 68 67 68 70 71
34 36 37 39 40 48 43 34 33 26 22 27 33 55 66 77 80 83 89 96 96 97 98 97 87 81 83 83 77 75 74 79
34 34 35 37 41 48 49 38 35 26 22 27 32 41 50 60 70 79 84 89 93 93 95 98 93 90 87 86 86 87 82 80
33 34 38 39 43 51 50 41 36 28 21 28 30 34 41 50 59 64 65 77 82 89 90 93 92 88 90 92 90 85 84 82
34 36 39 40 40 48 48 41 37 28 20 27 31 33 36 41 46 50 54 57 67 78 86 94 93 90 89 86 88 90 91 89
35 34 37 38 40 46 43 39 37 27 20 25 29 33 34 37 39 42 46 53 62 71 78 85 92 90 90 92 95 91 91 89
34 37 41 41 41 46 44 43 38 30 21 24 28 32 33 35 39 42 46 51 57 64 70 78 82 88 91 94 94 91 95 94
38 42 43 44 50 54 51 45 42 38 28 24 25 31 33 35 38 41 46 50 53 58 65 71 73 77 81 83 84 88 91 93
50 50 50 52 58 59 56 50 47 46 42 34 29 29 34 36 38 42 45 49 55 58 60 62 62 63 65 65 67 69 70 71
59 57 54 60 64 66 64 61 56 53 53 51 45 38 35 36 38 40 44 48 49 52 55 60 63 68 69 71 70 68 68 70
70 64 67 67 69 73 75 72 71 60 60 60 58 54 48 43 40 41 44 46 49 52 54 56 58 59 59 58 60 62 64 69
79 76 77 77 76 80 80 77 74 67 66 67 66 67 68 64 55 48 47 48 47 51 56 57 59 62 63 63 62 59 57 56
82 83 80 82 81 83 84 84 81 79 78 79 78 78 76 77 72 67 59 55 54 55 56 56 58 59 59 62 67 68 67 65
85 81 74 75 75 78 79 79 77 80 81 83 83 82 82 81 83 81 78 70 65 65 62 64 63 60 60 62 65 67 67 66
89 84 77 77 71 68 72 74 72 70 70 73 77 81 81 81 80 82 83 84 82 75 74 76 76 74 72 70 71 75 72 68
91 87 82 76 66 64 67 66 66 68 67 69 71 72 70 74 77 79 83 85 86 85 83 83 84 81 79 83 86 88 88 83